Location: Antioch Baptist Church
(32.6696°N, 85.7327°W)
Time: 11:38:26
(UTC+00:00)

COSMOS 2455 - Pass Details

Date: 14 July 2020
Orbit: 898 x 911 km, 67.1° (Epoch: 09 August)

Event Time Altitude Azimuth Distance (km) Brightness Sun altitude
Rises 03:24:41 0° 348° (NNW) 3,546 7.0 -25.7°
Reaches altitude 10° 03:27:46 10° 2° (N) 2,601 5.9 -26.1°
Maximum altitude 03:32:29 23° 54° (NE) 1,824 4.4 -26.7°
Enters shadow 03:33:19 23° 66° (ENE) 1,853 4.3 -26.8°
